Weather History for PAIN - November, 2011

Change the Weather History Date:

Thursday, November 24, 2011

  Actual Average Record
Temperature  
Mean Temperature -28 °F -  
Max Temperature -20 °F 15 °F 44 °F (2002)
Min Temperature -36 °F -2 °F -37 °F (1963)
Degree Days  
Heating Degree Days 93    
Moisture  
Dew Point -38 °F    
Average Humidity 71    
Maximum Humidity 82    
Minimum Humidity 63    
Precipitation  
Precipitation 0.00 in - - ()
Sea Level Pressure  
Sea Level Pressure 29.15 in    
Wind  
Wind Speed 0 mph (North)    
Max Wind Speed 0 mph    
Max Gust Speed -    
Visibility 10 miles    
Events      
Averages and records for this station are not official NWS values.
T = Trace of Precipitation, MM = Missing Value Source: NWS Daily Summary

Daily Weather History Graph

Daily Weather History Graph

Search for Another Location

Airport or City:

Trip Planner

Search our weather history database for the weather conditions in past years. The results will help you decide how hot, cold, wet, or windy it might be!

Date:

Astronomy

Nov. 24, 2011 Rise Set
Actual Time 9:48 AM AKST 3:35 PM AKST
Civil Twilight 8:44 AM AKST 4:39 PM AKST
Nautical Twilight 7:42 AM AKST 5:41 PM AKST
Astronomical Twilight 6:45 AM AKST 6:38 PM AKST
Moon 9:34 AM AKST (11/24) 2:55 PM AKST (11/24)
Length of Visible Light 7h 54m
Length of Day
5h 47m
Waning Crescent, 0% of the Moon is Illuminated
Nov 24
Waning Crescent
Nov 24
New
Dec 2
First Quarter
Dec 10
Full
Dec 17
Last Quarter

Hourly Weather History & Observations

Time (AKST) Temp. Dew Point Humidity Pressure Visibility Wind Dir Wind Speed Gust Speed Precip Events Conditions
12:16 AM -34.6 °F -41.8 °F 68% 29.10 in 10.0 mi Calm Calm - N/A   Clear
12:36 AM -34.6 °F -41.8 °F 68% 29.10 in 10.0 mi Calm Calm - N/A   Clear
12:56 AM -34.6 °F -41.8 °F 68% 29.10 in 10.0 mi Calm Calm - N/A   Clear
1:16 AM -34.6 °F -41.8 °F 68% 29.10 in 10.0 mi Calm Calm - N/A   Clear
1:36 AM -34.6 °F -41.8 °F 68% 29.10 in 10.0 mi Calm Calm - N/A   Clear
1:56 AM -34.6 °F -41.8 °F 68% 29.10 in 10.0 mi Calm Calm - N/A   Clear
2:16 AM -34.6 °F -41.8 °F 68% 29.10 in 10.0 mi Calm Calm - N/A   Clear
2:36 AM -34.6 °F -41.8 °F 68% 29.10 in 10.0 mi Calm Calm - N/A   Clear
2:56 AM -34.6 °F -41.8 °F 68% 29.10 in 10.0 mi Calm Calm - N/A   Clear
3:16 AM -34.6 °F -41.8 °F 68% 29.10 in 10.0 mi Calm Calm - N/A   Clear
3:36 AM -34.6 °F -41.8 °F 68% 29.10 in 10.0 mi Calm Calm - N/A   Clear
3:56 AM -34.6 °F -41.8 °F 68% 29.10 in 10.0 mi Calm Calm - N/A   Clear
4:16 AM -34.6 °F -41.8 °F 68% 29.10 in 10.0 mi Calm Calm - N/A   Clear
4:36 AM -34.6 °F -41.8 °F 68% 29.10 in 10.0 mi Calm Calm - N/A   Clear
4:56 AM -34.6 °F -41.8 °F 68% 29.10 in 10.0 mi Calm Calm - N/A   Clear
5:16 AM -34.6 °F -41.8 °F 68% 29.10 in 10.0 mi Calm Calm - N/A   Clear
5:36 AM -34.6 °F -41.8 °F 68% 29.11 in 10.0 mi Calm Calm - N/A   Clear
5:56 AM -34.6 °F -41.8 °F 68% 29.11 in 10.0 mi Calm Calm - N/A   Clear
6:16 AM -34.6 °F -41.8 °F 68% 29.11 in 10.0 mi Calm Calm - N/A   Clear
6:36 AM -36.4 °F -41.8 °F 75% 29.11 in 10.0 mi Calm Calm - N/A   Clear
6:56 AM -34.6 °F -41.8 °F 68% 29.11 in 10.0 mi Calm Calm - N/A   Clear
7:36 AM -34.6 °F -41.8 °F 68% 29.12 in 10.0 mi Calm Calm - N/A   Clear
7:56 AM -34.6 °F -41.8 °F 68% 29.12 in 10.0 mi Calm Calm - N/A   Clear
8:16 AM -34.6 °F -41.8 °F 68% 29.13 in 10.0 mi Calm Calm - N/A   Clear
8:36 AM -34.6 °F -41.8 °F 68% 29.13 in 10.0 mi Calm Calm - N/A   Clear
8:56 AM -34.6 °F -41.8 °F 68% 29.13 in 10.0 mi Calm Calm - N/A   Clear
9:16 AM -36.4 °F -41.8 °F 75% 29.13 in 10.0 mi Calm Calm - N/A   Clear
9:36 AM -36.4 °F -41.8 °F 75% 29.14 in 10.0 mi Calm Calm - N/A   Clear
9:56 AM -36.4 °F -41.8 °F 75% 29.15 in 10.0 mi Calm Calm - N/A   Clear
10:16 AM -36.4 °F -41.8 °F 75% 29.15 in 10.0 mi Calm Calm - N/A   Clear
10:36 AM -34.6 °F -41.8 °F 68% 29.15 in 10.0 mi Calm Calm - N/A   Clear
10:56 AM -34.6 °F -38.2 °F 82% 29.15 in 10.0 mi Calm Calm - N/A   Clear
11:16 AM -31.0 °F -36.4 °F 75% 29.16 in 10.0 mi Calm Calm - N/A   Clear
11:36 AM -27.4 °F -32.8 °F 75% 29.16 in 10.0 mi Calm Calm - N/A   Clear
12:16 PM -23.8 °F -31.0 °F 69% 29.16 in 10.0 mi Calm Calm - N/A   Clear
12:36 PM -23.8 °F -31.0 °F 69% 29.16 in 10.0 mi Calm Calm - N/A   Clear
12:56 PM -23.8 °F -29.2 °F 76% 29.16 in 10.0 mi Calm Calm - N/A   Clear
1:16 PM -23.8 °F -31.0 °F 69% 29.16 in 10.0 mi Calm Calm - N/A   Clear
1:36 PM -23.8 °F -29.2 °F 76% 29.16 in 10.0 mi Calm Calm - N/A   Clear
1:56 PM -20.2 °F -27.4 °F 69% 29.16 in 10.0 mi Calm Calm - N/A   Clear
2:16 PM -22.0 °F -31.0 °F 63% 29.16 in 10.0 mi Calm Calm - N/A   Clear
2:36 PM -25.6 °F -32.8 °F 69% 29.17 in 10.0 mi Calm Calm - N/A   Clear
2:56 PM -27.4 °F -34.6 °F 69% 29.17 in 10.0 mi Calm Calm - N/A   Clear
3:16 PM -27.4 °F -34.6 °F 69% 29.17 in 10.0 mi Calm Calm - N/A   Clear
3:36 PM -27.4 °F -34.6 °F 69% 29.17 in 10.0 mi Calm Calm - N/A   Clear
3:56 PM -29.2 °F -34.6 °F 75% 29.18 in 10.0 mi Calm Calm - N/A   Clear
4:16 PM -29.2 °F -34.6 °F 75% 29.18 in 10.0 mi Calm Calm - N/A   Clear
4:36 PM -29.2 °F -36.4 °F 68% 29.18 in 10.0 mi Calm Calm - N/A   Clear
4:56 PM -31.0 °F -36.4 °F 75% 29.19 in 10.0 mi Calm Calm - N/A   Clear
5:16 PM -29.2 °F -36.4 °F 68% 29.19 in 10.0 mi Calm Calm - N/A   Clear
5:36 PM -31.0 °F -36.4 °F 75% 29.20 in 10.0 mi Calm Calm - N/A   Clear
5:56 PM -31.0 °F -36.4 °F 75% 29.20 in 10.0 mi Calm Calm - N/A   Clear
6:16 PM -31.0 °F -36.4 °F 75% 29.21 in 10.0 mi Calm Calm - N/A   Clear
6:36 PM -31.0 °F -38.2 °F 68% 29.21 in 10.0 mi Calm Calm - N/A   Clear
6:56 PM -31.0 °F -38.2 °F 68% 29.22 in 10.0 mi Calm Calm - N/A   Clear
7:16 PM -32.8 °F -38.2 °F 75% 29.23 in 10.0 mi Calm Calm - N/A   Clear
7:36 PM -32.8 °F -38.2 °F 75% 29.23 in 10.0 mi Calm Calm - N/A   Clear
7:56 PM -32.8 °F -38.2 °F 75% 29.24 in 10.0 mi Calm Calm - N/A   Clear
8:16 PM -32.8 °F -38.2 °F 75% 29.25 in 10.0 mi Calm Calm - N/A   Clear
8:36 PM -32.8 °F -38.2 °F 75% 29.26 in 10.0 mi Calm Calm - N/A   Clear
8:56 PM -32.8 °F -40.0 °F 68% 29.27 in 10.0 mi Calm Calm - N/A   Clear
9:16 PM -32.8 °F -40.0 °F 68% 29.28 in 10.0 mi Calm Calm - N/A   Clear
9:36 PM -32.8 °F -40.0 °F 68% 29.28 in 10.0 mi Calm Calm - N/A   Clear
9:56 PM -34.6 °F -40.0 °F 75% 29.29 in 10.0 mi Calm Calm - N/A   Clear
10:16 PM -34.6 °F -41.8 °F 68% 29.30 in 10.0 mi Calm Calm - N/A   Clear
10:36 PM -34.6 °F -41.8 °F 68% 29.31 in 10.0 mi Calm Calm - N/A   Clear
10:56 PM -34.6 °F -41.8 °F 68% 29.32 in 10.0 mi Calm Calm - N/A   Clear
11:16 PM -34.6 °F -41.8 °F 68% 29.33 in 10.0 mi Calm Calm - N/A   Clear
11:36 PM -34.6 °F -41.8 °F 68% 29.33 in 10.0 mi Calm Calm - N/A   Clear
11:56 PM -34.6 °F -41.8 °F 68% 29.34 in 10.0 mi Calm Calm - N/A   Clear